STARLINK-11293, 61249

Orbit data source: Space-Track

STARLINK-11293, 61249 is a payload satellite owned by SpaceX/Seattle (US) in LEO that was launched on Wed, 25 Sep 2024 UTC via an FALCON 9 launch vehicle from the Air Force Western Test Range (AFWTR). Payload-class satellites include a variety of spacecraft equipped with specific instruments for various scientific and technological missions. These include communications satellites like Starlink; space stations such as the ISS; scientific satellites like the Hubble; Earth observation satellites from companies like Planet Labs, Umbra, and HawkEye 360; GPS; miniature CubeSats for education and research; and military/defense satellites.

Not visible in the next 10 days
Identifier
61249, 2024-175G
Orbit
LEO
Last TLE update
1 day ago
Origin
Manufacturer
SpaceX/Seattle
Mission
Operational Commercial Communications
Bus & Motor
STARLINK V2M, Unknown motor
Mass
730 kg wet, ~700 kg dry
Launch date (UTC)
2024-09-25 (7 months ago)
Launch vehicle
FALCON 9
Launch site
Air Force Western Test Range (AFWTR)
Object type
Payload
Rocket body
Debris
Shape & HBR
Box + 2 Pan, 29 m
Radar Cross Section
36.964 m², Large (>1 m²)

Expand to show TLE details & history

TLE from 1 day ago
0 STARLINK-11293
1 61249U 24175G   25128.28615841  .00002264  00000-0  23534-4 0  9999
2 61249  53.1572 121.4862 0001303  66.5451 293.5704 15.69717536 35407
Epoch: 2025-05-08T06:52Z
Definitive object data (Epoch: 2025-05-08T06:52:04.086Z)
Latitude
-0.00001°
Longitude
152.11033°
Altitude
360.269 km
Speed
7.695 km/s
True Right ascension
08h 05m 56s
True Declination
0° 00' 00"
Sunlit
Object was in daylight at TLE epoch
Visualization TLE readout
Latitude
-14.29692°
Longitude
-21.82651°
Altitude
364.078 km
Speed
7.691 km/s
Apparent Right ascension
23h 03m 24s
Apparent Declination
-35° 59' 28"
Sunlit
Object is in daylight
Visualization observer readout
Local Sidereal Time
14:46:30
Azimuth
103.346° ESE
Elevation
-46.562°
Doppler factor
1
Orbital elements
Apogee altitude
360.844 km
Perigee altitude
359.088 km
Semi-major axis
6,738.103 km
Eccentricity
0.0001303
Inclination
53.1572°
RAAN
121.4862°
Arg. of periapsis
66.5451°
True anomaly
293.55671°
Mean anomaly
293.5704°
Eccentric anomaly
293.56356°
Mean motion
3.92407 °/min
BSTAR
0.000023534
Orbital period
91.74 mins
Loading maneuver chart data...
Loading SW <> Apogee altitude chart data...
Loading historical data...
Loading historical data...
Loading historical data...
Loading historical data...
Loading historical data...
Loading historical data...
Loading historical data...

STARLINK-11293 Visibility forecast

Observer location: undefined°, undefined°

STARLINK-11293 is not visible in the next 10 days
Span
Click to sort rows by Start time (UTC) header in descending order
Start Az.
Max El. time (UTC)
Max El. Az.
Max El.
End time (UTC)
End Az.
|